Location: Chavannes
(47.1090°N, 0.2226°W)
Time: 16:07:46
(UTC+00:00)

H-2A R/B - Pass Details

Date: 16 October 2021
Orbit: 577 x 653 km, 98.5° (Epoch: 06 December)

Event Time Altitude Azimuth Distance (km) Brightness Sun altitude
Rises 18:13:54 0° 25° (NNE) 2,805 5.2 -11.4°
Reaches altitude 10° 18:16:20 10° 38° (NE) 1,902 4.2 -11.8°
Maximum altitude 18:19:49 26° 96° (E) 1,151 2.8 -12.4°
Drops below altitude 10° 18:23:18 10° 154° (SSE) 1,903 4.3 -13.0°
Sets 18:25:44 0° 167° (SSE) 2,807 5.3 -13.4°
